Temp
5 4 4 4 4 4 4 4 3 3 3 3 3 3 3 3 3 3 3 3 3 3 4 4 4 5 5 5 6 5 6 6 6 6 6 6 6 6 6 6 6 6 6 7 7 6 6
4 4 4 4 4 4 3 3 3 3 2 2 2 3 3 3 2 2 2 3 3 3 3 3 4 4 4 5 5 5 5 6 6 6 6 6 6 5 5 6 6 6 6 6 6 6 6
4 4 4 3 3 3 3 3 3 3 2 2 2 2 2 2 2 2 2 2 2 2 2 3 3 3 4 5 5 5 5 5 5 5 5 5 5 5 5 5 5 5 5 6 6 6 6
3 3 3 3 3 3 3 2 2 2 2 2 1 1 1 1 0 1 1 1 1 2 2 2 2 3 4 4 4 4 5 5 5 5 5 5 4 4 4 4 5 5 4 5 6 6 6
3 3 3 3 3 2 2 2 2 1 2 1 1 1 0 -0 -1 -1 -0 -0 -0 0 1 1 2 2 3 4 4 4 4 4 4 4 4 4 4 3 3 4 4 4 4 5 5 6 5
3 3 3 3 2 2 2 2 1 1 1 1 -0 -1 -1 -1 -2 -2 -1 -1 -1 -1 -1 -1 -0 1 2 3 4 4 4 4 4 4 3 3 3 3 3 3 4 4 3 4 5 6 6
3 3 2 2 2 1 1 1 0 0 -0 -0 -0 -1 -2 -2 -3 -3 -2 -2 -2 -2 -1 -1 -1 1 2 3 3 3 3 3 3 3 3 3 2 3 5 4 4 4 4 4 4 5 5
3 3 2 1 1 1 0 0 -0 -0 -1 -1 -1 -2 -2 -3 -3 -4 -3 -3 -3 -3 -2 -2 -2 -1 0 2 2 2 2 3 3 3 3 1 2 5 4 3 3 3 3 4 4 4 4
3 2 2 1 0 -0 -0 -0 -0 -1 -1 -2 -2 -2 -2 -3 -3 -4 -4 -3 -3 -4 -3 -0 -2 -2 0 1 2 2 2 3 3 3 2 3 4 4 3 3 3 3 3 4 4 4 3
2 1 1 0 -0 -0 -0 0 0 -1 -1 -2 -2 -3 -3 -3 -3 -4 -4 -4 -3 -4 -3 -1 -0 -1 -1 0 1 1 1 2 2 3 2 1 2 2 3 3 3 3 4 3 3 3 2
1 1 0 0 -0 -0 -0 -0 -1 -1 -1 -2 -2 -2 -3 -3 -3 -4 -4 -4 -4 -4 -4 -1 -1 -1 0 -1 0 2 1 1 1 2 1 2 3 2 2 3 3 2 3 3 2 2 2
1 0 -0 -0 -0 -0 -1 -1 -2 -2 -2 -2 -3 -3 -3 -3 -3 -4 -4 -5 -5 -5 -6 -1 -1 -1 -1 -0 0 1 1 0 0 1 0 1 1 2 2 2 2 2 2 2 2 1 -3
0 -1 -1 -1 -0 -1 -2 -2 -2 -2 -3 -3 -3 -3 -3 -4 -4 -4 -5 -5 -5 -5 -3 -2 -2 -1 -1 -1 -1 -0 1 1 -0 -1 -1 -1 0 1 1 1 1 1 1 -1 -3 -4 -4
-1 -1 -1 -1 -1 -2 -2 -2 -2 -2 -3 -4 -4 -4 -4 -5 -5 -5 -5 -6 -5 -4 -3 -3 -2 -2 -2 -2 -1 -1 -1 -1 -1 -1 0 -1 -1 1 1 1 2 1 2 0 -4 -5 -3
-1 -1 -1 -1 -2 -2 -2 -2 -2 -2 -2 -2 -3 -4 -5 -5 -5 -6 -5 -6 -5 -4 -4 -3 -3 -3 -2 -2 -2 -2 -1 -1 -0 -0 -1 -0 -0 1 1 1 1 -0 1 2 1 -2 -4
-1 -1 -2 -2 -2 -2 -2 -2 -2 -2 -2 -2 -3 -4 -4 -5 -5 -5 -6 -6 -6 -5 -4 -3 -3 -3 -4 -3 -2 -2 -2 -1 -1 -0 -1 0 0 -0 -0 -0 -0 0 1 -0 -0 -6 -4
-1 -2 -2 -2 -2 -2 -2 -2 -2 -2 -2 -2 -3 -4 -5 -5 -5 -5 -6 -6 -6 -5 -4 -4 -4 -4 -4 -3 -2 -2 -1 -1 -1 -0 -1 -1 -0 -2 -2 -1 -0 -1 -1 0 0 1 -5
-2 -2 -3 -2 -2 -2 -2 -2 -2 -2 -2 -2 -2 -4 -4 -5 -6 -6 -5 -6 -6 -5 -5 -5 -5 -5 -4 -4 -4 -3 -2 -2 -1 -1 -1 -2 -1 -1 -1 -1 -1 -2 -1 -0 0 -2 -0
-2 -2 -2 -2 -2 -2 -2 -2 -2 -2 -2 -2 -2 -3 -4 -5 -6 -6 -5 -6 -6 -5 -5 -6 -5 -5 -5 -5 -5 -4 -3 -3 -2 -2 -2 -2 -3 -2 -3 -3 -2 -2 -1 -1 -1 -1 0
-2 -2 -2 -2 -2 -2 -2 -2 -2 -2 -2 -2 -3 -3 -4 -5 -5 -5 -5 -5 -5 -5 -5 -6 -5 -5 -5 -5 -5 -5 -4 -3 -3 -3 -3 -3 -3 -2 -3 -1 -1 -2 -0 -0 -2 -2 -1
-2 -2 -2 -2 -2 -2 -2 -2 -2 -2 -2 -3 -3 -3 -4 -4 -4 -5 -6 -5 -5 -6 -6 -6 -6 -6 -6 -5 -5 -5 -5 -4 -4 -4 -4 -4 -4 -3 -2 -2 -1 -1 -0 -0 -2 0 -2
-2 -2 -2 -2 -2 -2 -2 -2 -2 -2 -3 -3 -3 -4 -3 -4 -4 -4 -5 -5 -5 -6 -6 -5 -6 -7 -7 -6 -6 -6 -5 -6 -5 -5 -4 -4 -4 -4 -4 -3 -3 -2 -2 -2 -2 -2 -2
-2 -2 -2 -2 -2 -2 -2 -2 -2 -2 -3 -3 -3 -4 -4 -4 -4 -4 -4 -5 -6 -6 -5 -5 -6 -6 -6 -7 -7 -6 -6 -6 -6 -5 -5 -5 -5 -5 -5 -4 -4 -4 -2 -2 -1 -1 -0
-2 -3 -3 -3 -3 -2 -2 -2 -2 -2 -3 -3 -3 -4 -5 -4 -5 -5 -6 -6 -6 -7 -7 -6 -6 -6 -5 -6 -6 -6 -6 -6 -6 -6 -5 -5 -5 -6 -5 -5 -6 -3 -3 -2 -2 -1 -1
-3 -3 -3 -3 -3 -2 -2 -2 -2 -3 -3 -3 -4 -4 -6 -6 -6 -6 -6 -6 -6 -7 -7 -6 -6 -6 -6 -6 -6 -6 -6 -6 -6 -6 -6 -6 -6 -6 -6 -7 -4 -4 -4 -3 -2 -2 -2
-3 -3 -3 -3 -3 -2 -2 -2 -3 -3 -3 -4 -4 -5 -6 -7 -7 -7 -8 -8 -7 -7 -7 -7 -7 -7 -7 -7 -8 -7 -7 -6 -6 -6 -6 -7 -7 -7 -6 -7 -7 -5 -5 -4 -4 -4 -3
-3 -3 -3 -3 -2 -2 -2 -3 -3 -3 -4 -5 -5 -5 -6 -8 -8 -9 -9 -9 -9 -9 -8 -8 -8 -8 -7 -7 -8 -8 -7 -6 -5 -5 -5 -6 -7 -7 -7 -7 -6 -5 -4 -5 -5 -5 -4
-4 -3 -3 -3 -3 -3 -3 -3 -4 -4 -5 -5 -6 -6 -8 -9 -9 -10 -10 -11 -10 -10 -9 -9 -9 -8 -8 -9 -9 -8 -8 -7 -6 -5 -5 -5 -7 -7 -7 -7 -8 -6 -6 -6 -5 -5 -5
-4 -4 -3 -3 -3 -3 -3 -3 -5 -6 -6 -6 -6 -7 -8 -9 -10 -11 -11 -11 -11 -10 -10 -10 -10 -9 -10 -10 -10 -9 -8 -8 -7 -6 -6 -7 -7 -7 -7 -7 -7 -6 -6 -6 -6 -6 -6
Height
3111 3110 3107 3105 3103 3101 3100 3098 3097 3096 3095 3094 3093 3092 3091 3090 3090 3090 3090 3090 3090 3090 3091 3091 3093 3094 3095 3096 3101 3101 3101 3103 3106 3108 3109 3110 3113 3114 3116 3117 3118 3118 3120 3121 3123 3126 3126
3107 3107 3104 3101 3100 3098 3095 3094 3093 3092 3091 3090 3089 3087 3086 3086 3086 3085 3085 3085 3085 3086 3086 3086 3086 3087 3088 3093 3093 3096 3098 3101 3102 3104 3104 3107 3109 3112 3113 3114 3115 3115 3117 3118 3118 3121 3122
3105 3103 3100 3098 3096 3094 3092 3090 3088 3086 3085 3083 3082 3081 3080 3080 3079 3080 3080 3080 3079 3080 3080 3081 3080 3081 3082 3089 3089 3091 3093 3095 3098 3100 3101 3103 3105 3107 3109 3111 3111 3113 3115 3113 3114 3117 3119
3100 3098 3096 3093 3091 3089 3087 3086 3084 3082 3079 3078 3076 3074 3073 3073 3073 3073 3074 3073 3074 3073 3074 3075 3075 3076 3076 3080 3082 3086 3088 3090 3093 3095 3097 3098 3100 3103 3105 3107 3107 3109 3110 3109 3110 3113 3114
3096 3094 3092 3090 3088 3086 3084 3082 3080 3078 3076 3073 3071 3068 3067 3067 3067 3067 3068 3068 3067 3068 3067 3068 3070 3070 3072 3073 3077 3080 3083 3085 3087 3089 3091 3094 3096 3099 3101 3102 3104 3104 3103 3104 3107 3109 3110
3092 3091 3089 3086 3085 3083 3081 3079 3077 3075 3072 3069 3066 3063 3061 3060 3061 3062 3061 3061 3060 3062 3062 3062 3062 3066 3067 3068 3071 3073 3075 3078 3081 3084 3087 3090 3091 3092 3094 3095 3092 3096 3099 3102 3103 3105 3105
3089 3088 3085 3084 3082 3080 3078 3076 3073 3070 3067 3064 3061 3059 3057 3056 3055 3055 3056 3054 3056 3056 3053 3057 3059 3060 3063 3063 3065 3066 3069 3071 3075 3078 3081 3083 3083 3082 3084 3090 3093 3096 3097 3099 3100 3101 3101
3086 3084 3082 3081 3079 3077 3074 3071 3068 3064 3061 3058 3056 3054 3052 3051 3050 3050 3050 3049 3049 3048 3047 3049 3051 3052 3057 3058 3059 3060 3063 3066 3068 3071 3074 3077 3074 3082 3084 3088 3090 3091 3093 3095 3096 3097 3097
3083 3081 3080 3077 3075 3072 3069 3066 3062 3058 3055 3053 3051 3049 3047 3047 3046 3046 3046 3045 3044 3043 3041 3040 3041 3044 3051 3053 3053 3055 3058 3060 3062 3065 3066 3068 3073 3076 3078 3082 3084 3085 3087 3089 3093 3094 3094
3080 3078 3076 3075 3072 3069 3065 3061 3057 3053 3050 3047 3045 3043 3042 3042 3043 3041 3042 3041 3041 3040 3038 3032 3034 3036 3041 3045 3046 3050 3053 3058 3058 3060 3063 3065 3069 3071 3072 3073 3079 3078 3084 3086 3088 3090 3090
3078 3076 3074 3072 3068 3065 3060 3056 3052 3048 3044 3041 3039 3037 3035 3036 3036 3037 3039 3037 3038 3038 3039 3030 3028 3030 3033 3037 3043 3043 3048 3050 3051 3055 3058 3057 3061 3063 3065 3067 3072 3075 3080 3084 3084 3085 3085
3075 3073 3071 3068 3064 3060 3057 3053 3049 3044 3040 3037 3034 3031 3029 3031 3032 3032 3034 3034 3036 3040 3033 3027 3026 3025 3028 3029 3033 3038 3041 3044 3048 3051 3050 3054 3057 3060 3061 3065 3069 3073 3077 3080 3080 3081 3077
3072 3069 3067 3064 3061 3058 3054 3050 3046 3042 3039 3034 3030 3026 3023 3024 3027 3027 3029 3032 3035 3032 3029 3026 3024 3024 3025 3025 3027 3031 3034 3037 3041 3046 3044 3047 3051 3053 3056 3059 3063 3067 3073 3077 3081 3079 3068
3068 3066 3065 3061 3058 3055 3053 3050 3046 3042 3036 3029 3023 3020 3019 3019 3021 3024 3027 3030 3030 3025 3025 3024 3022 3022 3023 3024 3025 3027 3031 3032 3035 3038 3039 3041 3046 3047 3050 3053 3053 3057 3062 3062 3073 3070 3060
3065 3065 3063 3059 3056 3055 3053 3050 3045 3040 3032 3023 3017 3016 3016 3016 3018 3021 3025 3025 3024 3024 3024 3023 3023 3022 3022 3022 3024 3024 3026 3027 3029 3032 3036 3036 3038 3039 3043 3046 3052 3052 3053 3059 3058 3058 3058
3063 3064 3061 3058 3057 3054 3052 3049 3045 3041 3034 3024 3018 3017 3016 3016 3018 3020 3022 3021 3020 3020 3020 3020 3019 3019 3019 3021 3022 3023 3024 3022 3022 3025 3028 3031 3033 3033 3035 3040 3042 3043 3049 3053 3054 3059 3057
3062 3062 3060 3057 3056 3054 3051 3048 3045 3042 3036 3028 3023 3020 3018 3016 3018 3019 3019 3018 3017 3017 3016 3018 3017 3017 3017 3018 3017 3017 3018 3019 3019 3019 3021 3025 3028 3029 3030 3029 3031 3036 3037 3041 3043 3043 3042
3061 3061 3059 3057 3054 3054 3051 3048 3045 3042 3036 3031 3025 3022 3020 3018 3019 3017 3017 3017 3016 3016 3014 3014 3014 3014 3014 3014 3013 3014 3013 3014 3015 3015 3015 3019 3022 3021 3023 3023 3025 3027 3029 3032 3034 3034 3033
3059 3058 3057 3057 3054 3053 3051 3048 3044 3041 3038 3033 3028 3025 3022 3019 3018 3016 3015 3014 3013 3013 3013 3013 3013 3012 3012 3012 3011 3008 3008 3010 3011 3011 3012 3012 3014 3017 3017 3019 3018 3018 3020 3023 3026 3027 3024
3058 3057 3056 3056 3054 3052 3050 3048 3044 3040 3036 3033 3029 3025 3023 3020 3018 3015 3013 3011 3008 3008 3008 3008 3007 3008 3007 3006 3007 3004 3004 3005 3005 3007 3009 3008 3008 3008 3007 3008 3009 3009 3011 3015 3020 3021 3015
3057 3056 3054 3053 3052 3050 3049 3046 3043 3039 3036 3033 3029 3026 3022 3020 3017 3014 3012 3010 3007 3006 3005 3004 3002 3001 3001 2998 2997 2996 2998 3000 3000 3001 3002 3003 3001 3003 3003 3004 3004 3004 3006 3007 3008 3006 3012
3056 3055 3054 3052 3051 3048 3047 3045 3041 3037 3034 3033 3028 3025 3020 3017 3014 3011 3008 3007 3006 3004 3003 3001 2999 2997 2995 2993 2992 2990 2991 2992 2993 2994 2996 2997 2996 2997 2997 2998 2999 2998 2999 3000 3000 3002 3000
3054 3053 3052 3051 3049 3046 3045 3042 3039 3035 3031 3029 3024 3021 3017 3013 3010 3008 3005 3003 3001 2999 2997 2997 2995 2994 2992 2990 2986 2985 2985 2985 2985 2986 2988 2991 2991 2992 2989 2993 2993 2991 2986 2991 2992 2991 2995
3053 3052 3051 3049 3046 3044 3042 3038 3035 3031 3027 3023 3020 3015 3010 3006 3003 3002 2999 2997 2995 2995 2992 2991 2990 2988 2987 2985 2983 2982 2980 2979 2978 2979 2981 2981 2984 2985 2983 2987 2988 2975 2978 2982 2983 2985 2986
3050 3050 3049 3046 3044 3042 3039 3035 3031 3026 3021 3016 3011 3007 3002 2998 2996 2995 2992 2990 2989 2989 2986 2985 2984 2983 2980 2980 2979 2977 2977 2976 2973 2973 2974 2975 2977 2977 2978 2977 2973 2971 2973 2975 2976 2978 2978
3049 3047 3046 3043 3041 3038 3034 3031 3026 3020 3015 3008 3004 3000 2995 2992 2989 2986 2985 2984 2982 2981 2981 2979 2979 2977 2976 2975 2975 2974 2973 2973 2973 2971 2971 2972 2973 2975 2973 2973 2971 2969 2968 2969 2970 2969 2972
3046 3045 3043 3040 3037 3033 3029 3025 3021 3015 3008 3004 2998 2994 2989 2985 2982 2981 2979 2977 2976 2975 2974 2973 2973 2973 2972 2971 2970 2970 2969 2969 2968 2967 2968 2967 2968 2969 2970 2970 2968 2967 2966 2965 2969 2971 2966
3043 3043 3041 3037 3033 3030 3025 3021 3016 3009 3003 2999 2995 2989 2985 2980 2977 2975 2973 2972 2971 2970 2970 2970 2970 2967 2967 2967 2967 2966 2965 2964 2964 2963 2963 2964 2964 2965 2967 2968 2965 2961 2962 2966 2965 2963 2963
3041 3040 3037 3033 3030 3026 3021 3016 3010 3005 3000 2995 2991 2986 2982 2978 2975 2972 2970 2968 2967 2965 2965 2963 2965 2964 2964 2964 2964 2964 2963 2962 2961 2961 2960 2962 2962 2962 2963 2961 2958 2958 2958 2959 2959 2959 2960
Wind_Speed
12 15 18 19 20 21 22 22 21 21 21 20 20 21 22 22 22 22 21 20 20 19 21 21 23 24 24 23 22 10 13 21 22 20 20 17 18 18 19 20 21 20 20 18 18 19 18
15 18 20 20 22 23 24 24 24 24 23 22 22 21 21 23 25 24 23 23 22 21 21 22 23 24 25 25 23 22 21 13 16 20 21 20 19 18 20 21 20 17 19 19 18 18 17
19 21 22 22 21 22 22 22 23 24 25 25 25 24 23 24 24 25 25 25 24 24 22 23 23 25 27 21 22 23 22 22 21 16 19 20 20 21 22 20 22 19 16 16 18 19 19
20 21 21 20 18 18 19 19 19 20 21 22 24 24 25 24 24 27 26 24 24 24 24 25 23 25 26 25 25 23 21 22 22 23 20 21 23 22 22 21 18 20 21 21 20 18 19
20 18 17 17 16 16 16 17 18 20 21 22 22 22 24 24 24 25 28 32 23 22 23 24 24 25 25 27 26 23 25 22 20 22 22 22 23 25 25 23 21 21 19 21 22 19 19
16 15 14 14 14 14 15 18 20 21 21 22 22 22 22 22 22 22 26 24 29 36 24 22 27 24 24 18 25 25 26 27 26 23 23 25 27 29 28 30 29 23 22 19 20 16 19
12 13 11 12 13 14 17 18 19 21 21 20 21 21 21 20 18 19 22 24 22 28 39 31 21 20 25 15 27 21 26 28 28 29 27 30 33 36 36 34 31 22 14 18 18 18 23
10 10 12 13 15 17 19 19 21 22 23 21 20 20 19 18 17 18 21 25 21 26 29 36 26 27 25 21 22 21 23 25 32 32 32 32 36 31 32 31 29 28 23 20 19 16 17
9 11 13 14 17 18 18 21 25 24 23 20 19 20 18 16 17 17 18 19 19 20 23 28 36 29 26 26 27 23 20 23 26 30 34 37 33 34 32 29 30 31 32 31 26 19 17
10 12 15 17 19 20 22 26 27 25 23 20 19 21 19 18 17 16 17 20 14 16 17 28 26 34 36 24 29 29 23 19 26 27 28 28 34 28 25 33 33 34 30 28 24 24 21
12 15 17 18 19 21 23 24 23 22 21 22 20 18 18 14 15 15 13 15 18 12 3 6 15 21 33 37 32 31 27 28 28 26 25 25 24 34 33 26 26 32 27 24 22 25 25
13 17 18 20 20 20 20 20 21 21 21 20 21 19 19 15 12 12 13 13 13 5 7 5 8 17 22 30 36 32 26 29 28 26 28 25 22 23 29 33 29 24 22 19 21 20 10
17 18 18 15 16 17 19 23 24 24 23 23 22 20 15 13 13 10 11 14 9 8 4 5 5 12 17 25 32 34 33 34 30 25 30 24 27 29 24 23 27 27 22 3 3 3 6
16 13 11 12 15 18 19 22 26 30 27 27 26 19 12 10 13 10 10 14 10 5 16 2 9 4 15 19 26 27 25 31 36 27 17 27 14 32 31 28 28 33 35 14 8 5 4
8 6 8 13 16 17 19 23 26 32 34 28 19 13 12 9 11 11 14 16 7 6 11 11 13 6 7 13 13 24 29 32 34 39 25 18 21 21 36 34 30 31 37 35 12 2 0
3 5 10 13 14 16 19 21 26 29 33 33 23 12 7 3 9 11 13 19 13 19 12 14 10 8 12 9 17 12 14 13 32 34 38 24 11 22 29 31 34 32 31 20 19 2 5
5 8 10 11 12 14 17 20 22 24 28 33 26 16 8 3 6 10 9 12 17 19 15 4 11 8 8 5 15 18 9 10 11 14 20 41 21 11 22 29 38 36 31 23 19 21 6
8 7 8 9 11 12 16 18 20 22 24 25 28 20 16 9 3 6 7 11 9 11 14 13 14 13 12 16 19 12 15 21 9 10 14 30 20 27 22 20 29 34 35 41 18 10 22
7 7 8 8 10 13 15 17 20 21 22 22 21 22 17 13 5 8 11 12 18 16 18 13 12 13 10 13 9 19 24 24 14 9 12 17 19 13 4 20 25 30 39 40 43 20 23
6 6 6 7 10 13 15 18 19 21 22 22 21 16 14 11 10 9 10 12 13 18 21 21 23 24 28 30 26 20 17 15 24 25 16 15 23 21 22 12 10 29 39 39 42 27 36
5 3 6 7 10 12 15 17 18 20 21 21 20 16 14 15 13 12 13 10 9 8 7 9 14 11 12 23 28 30 31 26 17 17 25 27 24 25 34 25 21 25 24 31 44 49 28
2 4 7 9 11 13 14 16 18 20 22 23 22 21 21 15 14 14 14 11 12 8 12 13 12 16 18 15 18 22 19 28 29 24 26 24 24 28 29 25 26 30 25 24 24 37 52
3 5 7 9 11 13 14 18 20 22 25 28 28 24 24 23 18 19 18 16 16 18 15 13 19 19 15 18 18 12 20 19 29 25 29 27 30 25 27 21 18 25 39 35 37 33 27
4 7 8 11 13 14 17 21 26 29 29 30 31 29 26 26 23 20 20 24 25 21 22 23 18 18 18 14 18 16 16 15 19 24 29 29 32 27 15 15 6 26 25 24 23 28 29
6 8 11 12 14 17 21 25 29 31 32 33 32 30 28 28 26 25 22 15 16 23 21 19 18 20 20 18 17 10 13 13 6 17 24 25 20 13 8 17 15 8 12 17 24 25 27
8 11 11 12 16 21 25 28 31 32 33 32 29 29 27 25 23 23 24 26 20 18 22 18 15 14 15 14 10 6 7 7 5 3 5 16 21 19 10 4 6 5 11 21 19 22 20
10 10 12 16 20 24 27 30 32 33 31 28 27 26 24 21 21 18 21 25 25 24 22 16 10 8 8 11 12 9 9 9 7 8 12 19 19 22 23 8 4 9 12 10 10 8 16
9 12 16 19 22 25 28 31 33 30 27 27 27 25 21 19 18 14 16 18 19 19 19 18 19 18 15 13 8 8 9 8 11 14 10 8 10 14 15 8 9 17 15 14 13 10 8
10 14 18 21 24 27 30 32 28 25 25 26 24 22 19 16 16 14 12 12 12 12 13 16 15 11 6 6 9 7 7 6 7 4 10 11 13 6 10 8 9 8 10 13 14 15 14
Wind_Direction
311 317 315 315 313 313 313 311 307 304 301 298 293 285 278 274 272 268 264 263 258 251 246 241 238 235 233 230 225 222 225 225 225 226 226 225 230 230 233 232 231 232 232 231 234 231 232
304 308 308 310 310 307 304 303 303 302 299 297 294 289 288 284 279 274 267 261 259 256 250 246 244 242 237 236 232 228 228 218 220 223 227 224 223 230 230 228 228 234 233 231 230 234 235
310 310 308 308 308 307 306 306 304 301 297 294 289 286 280 278 281 276 273 266 258 256 252 251 244 243 241 233 237 231 228 230 231 225 223 224 222 224 228 231 235 235 235 234 232 232 239
309 307 308 309 311 312 311 312 311 308 305 302 297 290 282 272 270 265 269 268 262 256 252 249 248 246 243 237 234 233 228 227 229 227 223 220 224 224 223 229 235 238 242 242 238 235 239
306 308 311 314 318 318 319 323 325 323 319 313 306 298 290 280 271 267 261 254 267 261 256 254 247 248 246 239 233 233 234 229 223 224 223 223 223 224 221 224 226 231 236 240 244 242 239
305 311 316 320 318 323 328 326 321 316 313 312 309 304 296 286 272 264 260 259 255 255 261 265 254 256 249 245 234 232 226 229 228 225 221 219 219 221 222 220 221 220 227 240 242 250 246
314 318 321 322 321 319 321 321 320 319 316 312 308 306 301 292 280 268 269 271 249 252 250 245 249 247 250 246 237 228 223 225 224 222 225 223 218 221 231 231 232 239 238 249 253 252 258
318 319 323 320 314 312 316 321 321 319 315 310 307 309 302 297 280 274 271 278 276 250 266 239 240 238 245 243 241 231 221 220 222 223 220 221 223 237 238 235 236 237 241 241 246 253 257
317 322 317 311 311 312 315 323 322 320 316 308 304 305 299 295 282 268 275 269 274 261 269 256 238 233 239 243 243 239 234 231 230 228 226 229 240 235 238 235 233 237 238 243 244 252 263
323 322 315 312 316 315 317 322 321 319 314 307 300 298 292 289 286 278 264 284 281 261 265 269 244 238 233 234 241 238 236 239 234 234 232 240 238 244 243 236 235 240 240 245 247 249 246
323 321 318 320 323 322 322 325 327 327 325 318 303 293 288 282 285 268 266 263 276 259 280 267 235 227 228 229 239 241 233 235 232 232 222 224 232 230 231 234 232 239 245 245 248 246 248
319 320 325 326 331 336 341 346 348 345 337 327 317 300 281 275 274 273 244 240 262 240 250 248 245 224 222 215 220 234 225 223 226 228 236 236 233 233 239 238 235 232 235 237 240 238 248
319 328 328 336 349 0 11 10 2 353 340 328 322 314 291 261 254 256 233 227 222 217 276 249 241 242 228 221 215 222 223 220 211 211 223 225 224 230 230 224 229 224 215 204 248 221 228
325 335 336 1 22 26 22 20 17 9 351 330 317 309 301 249 236 220 209 205 227 251 235 229 237 293 236 222 224 224 220 219 217 216 219 215 224 225 228 222 216 212 210 189 196 207 222
344 343 22 39 39 33 26 20 14 11 3 354 328 311 301 245 226 211 217 210 233 238 265 255 238 220 262 238 226 227 228 231 234 224 221 217 227 230 230 227 222 207 208 222 238 227 270
16 61 46 47 43 30 21 16 15 11 13 17 16 355 322 253 208 215 225 233 241 241 217 236 246 249 261 234 216 218 226 250 241 238 231 230 233 227 220 223 220 219 215 204 214 160 242
93 65 59 56 41 29 21 18 13 10 15 22 18 17 16 350 230 219 235 252 240 249 293 229 216 222 227 227 211 220 229 246 228 242 231 225 225 226 215 216 219 213 209 208 214 227 184
101 82 61 47 36 28 18 12 5 5 10 15 24 26 31 4 274 267 275 277 269 273 295 321 310 293 277 251 260 239 232 224 248 239 223 224 232 236 229 227 225 224 222 218 211 215 225
106 83 55 38 29 12 3 356 355 356 360 2 15 28 35 41 354 305 281 274 273 268 268 269 273 285 272 273 281 251 262 234 239 246 204 221 220 233 233 235 230 226 227 227 224 230 235
112 85 52 23 8 356 348 346 349 350 355 358 2 11 9 10 10 22 354 334 289 274 278 273 272 263 261 266 262 259 260 252 246 239 240 227 227 227 229 235 229 229 235 232 227 231 238
118 65 26 5 354 349 342 343 346 349 349 351 354 352 351 333 325 319 312 340 358 359 355 318 311 294 286 277 269 255 255 243 242 246 246 233 240 245 241 243 250 256 254 243 226 232 223
67 6 357 349 341 345 340 341 344 345 344 339 340 336 333 330 316 307 299 303 300 299 301 306 297 319 313 312 302 256 256 247 248 245 240 239 243 244 259 254 253 255 252 247 244 242 239
344 349 340 337 340 341 340 342 338 337 336 331 329 325 320 317 312 306 305 300 290 295 289 289 295 294 300 309 323 281 253 259 238 237 238 233 232 238 251 250 255 268 250 251 251 254 258
333 340 337 337 337 339 337 334 330 331 332 328 322 315 307 304 302 302 294 294 291 286 280 296 288 291 285 285 298 293 298 296 253 249 245 241 228 222 237 227 227 253 254 247 248 253 256
330 332 332 335 335 334 333 331 329 330 331 328 324 317 308 300 298 292 292 269 270 284 282 283 288 289 286 278 273 286 284 307 304 248 241 237 234 215 213 206 245 241 234 236 243 251 248
327 329 329 331 333 332 331 330 329 329 329 327 327 321 312 302 304 293 287 287 286 283 290 284 285 280 289 282 266 246 230 261 265 260 283 245 236 233 220 231 221 248 244 238 230 252 254
326 330 331 337 335 333 332 332 330 331 331 336 334 328 319 306 304 296 288 288 288 288 287 285 282 274 279 273 249 248 249 220 227 235 254 227 224 229 237 235 269 241 270 264 200 253 246
336 334 337 339 336 335 334 333 334 338 342 344 340 339 334 328 322 314 304 300 295 288 285 279 283 278 268 246 243 234 242 238 238 240 250 241 213 226 230 236 252 247 250 240 252 258 267
343 340 341 341 339 338 338 338 342 347 349 348 349 349 349 345 334 328 331 328 321 305 290 276 256 244 245 233 232 239 255 257 250 250 249 225 225 235 219 226 236 237 241 251 260 266 265